TimeEST,TemperatureF,Dew PointF,Humidity,Sea Level PressureIn,VisibilityMPH,Wind Direction,Wind SpeedMPH,Gust SpeedMPH,PrecipitationIn,Events,Conditions,WindDirDegrees,DateUTC
12:15 AM,64.4,60.8,88,30.01,10.0,North,-9999.0,-,N/A,,Clear,0,2014-02-21 05:15:00
12:35 AM,66.2,60.8,83,30.00,10.0,South,18.4,24.2,N/A,,Clear,190,2014-02-21 05:35:00
12:55 AM,66.2,60.8,83,29.99,10.0,South,19.6,25.3,N/A,,Clear,190,2014-02-21 05:55:00
1:15 AM,66.2,60.8,83,29.99,10.0,South,19.6,27.6,N/A,,Clear,190,2014-02-21 06:15:00
2:15 AM,66.2,60.8,83,29.98,10.0,South,19.6,28.8,N/A,,Mostly Cloudy,190,2014-02-21 07:15:00
2:55 AM,68.0,60.8,78,29.99,10.0,SSW,16.1,28.8,N/A,,Overcast,200,2014-02-21 07:55:00
3:15 AM,68.0,60.8,78,29.99,10.0,SSW,19.6,24.2,N/A,,Overcast,200,2014-02-21 08:15:00
3:35 AM,66.2,60.8,83,29.96,10.0,South,15.0,-,N/A,,Mostly Cloudy,190,2014-02-21 08:35:00
4:15 AM,66.2,60.8,83,29.97,10.0,North,-9999.0,-,N/A,,Scattered Clouds,0,2014-02-21 09:15:00
4:35 AM,66.2,60.8,83,29.96,10.0,South,13.8,24.2,N/A,,Mostly Cloudy,180,2014-02-21 09:35:00
5:15 AM,66.2,60.8,83,29.95,10.0,North,-9999.0,-,N/A,,Scattered Clouds,0,2014-02-21 10:15:00
6:15 AM,66.2,60.8,83,29.94,10.0,South,15.0,26.5,N/A,,Mostly Cloudy,190,2014-02-21 11:15:00
6:35 AM,66.2,60.8,83,29.93,10.0,South,17.3,25.3,N/A,,Mostly Cloudy,180,2014-02-21 11:35:00
6:55 AM,66.2,60.8,83,29.92,10.0,South,16.1,23.0,N/A,,Mostly Cloudy,170,2014-02-21 11:55:00
7:15 AM,66.2,60.8,83,29.92,10.0,South,17.3,23.0,N/A,,Scattered Clouds,180,2014-02-21 12:15:00
7:35 AM,66.2,60.8,83,29.92,10.0,South,19.6,28.8,N/A,,Mostly Cloudy,180,2014-02-21 12:35:00
7:55 AM,68.0,60.8,78,29.91,10.0,South,17.3,27.6,N/A,,Overcast,180,2014-02-21 12:55:00
8:15 AM,68.0,60.8,78,29.92,10.0,South,20.7,25.3,N/A,,Overcast,180,2014-02-21 13:15:00
8:35 AM,68.0,60.8,78,29.93,10.0,South,19.6,26.5,N/A,,Overcast,180,2014-02-21 13:35:00
8:55 AM,69.8,60.8,73,29.92,10.0,South,18.4,29.9,N/A,,Overcast,190,2014-02-21 13:55:00
9:15 AM,69.8,60.8,73,29.92,10.0,South,20.7,32.2,N/A,,Overcast,190,2014-02-21 14:15:00
9:35 AM,69.8,60.8,73,29.91,10.0,South,23.0,28.8,N/A,,Overcast,190,2014-02-21 14:35:00
9:55 AM,71.6,62.6,73,29.89,10.0,South,19.6,26.5,N/A,,Overcast,180,2014-02-21 14:55:00
10:15 AM,71.6,62.6,73,29.88,10.0,South,27.6,34.5,N/A,,Overcast,190,2014-02-21 15:15:00
10:35 AM,71.6,62.6,73,29.86,10.0,South,21.9,28.8,N/A,,Overcast,180,2014-02-21 15:35:00
10:55 AM,73.4,62.6,69,29.85,10.0,South,21.9,33.4,N/A,,Overcast,180,2014-02-21 15:55:00
11:15 AM,73.4,62.6,69,29.85,10.0,South,20.7,31.1,N/A,,Mostly Cloudy,190,2014-02-21 16:15:00
11:35 AM,66.2,57.2,73,29.91,1.2,WSW,10.4,49.5,0.32,Thunderstorm,Unknown,240,2014-02-21 16:35:00
11:55 AM,60.8,60.8,100,29.87,10.0,SSW,12.7,23.0,0.01,Rain-Thunderstorm,Light Thunderstorms and Rain,210,2014-02-21 16:55:00
12:15 PM,62.6,60.8,94,29.86,10.0,South,16.1,23.0,0.03,Rain,Rain,190,2014-02-21 17:15:00
12:35 PM,60.8,60.8,100,29.85,10.0,SSW,15.0,-,0.06,Rain,Light Rain,210,2014-02-21 17:35:00
12:55 PM,60.8,60.8,100,29.86,10.0,SSW,15.0,20.7,0.02,Rain,Rain,210,2014-02-21 17:55:00
1:15 PM,60.8,60.8,100,29.84,10.0,SSW,10.4,-,0.06,Rain,Light Rain,200,2014-02-21 18:15:00
1:35 PM,60.8,60.8,100,29.83,10.0,SSW,11.5,17.3,0.06,Thunderstorm,Mostly Cloudy,210,2014-02-21 18:35:00
1:55 PM,62.6,60.8,94,29.83,10.0,SSW,10.4,19.6,N/A,,Scattered Clouds,210,2014-02-21 18:55:00
2:15 PM,62.6,60.8,94,29.82,10.0,SSW,9.2,17.3,N/A,,Scattered Clouds,210,2014-02-21 19:15:00
2:35 PM,62.6,59.0,88,29.83,10.0,WSW,11.5,17.3,N/A,,Mostly Cloudy,240,2014-02-21 19:35:00
2:55 PM,57.2,48.2,72,29.86,10.0,WNW,10.4,20.7,N/A,,Overcast,290,2014-02-21 19:55:00
3:15 PM,57.2,46.4,67,29.89,10.0,West,6.9,-,N/A,,Overcast,280,2014-02-21 20:15:00
3:35 PM,57.2,46.4,67,29.89,10.0,West,5.8,-,N/A,,Overcast,280,2014-02-21 20:35:00
3:55 PM,57.2,46.4,67,29.88,10.0,West,6.9,-,N/A,,Overcast,270,2014-02-21 20:55:00
4:15 PM,57.2,46.4,67,29.89,10.0,West,5.8,-,N/A,,Overcast,260,2014-02-21 21:15:00
4:35 PM,57.2,46.4,67,29.90,10.0,West,6.9,-,N/A,,Light Drizzle,270,2014-02-21 21:35:00
4:55 PM,57.2,44.6,63,29.90,10.0,West,4.6,-,N/A,,Overcast,280,2014-02-21 21:55:00
5:15 PM,57.2,42.8,59,29.91,10.0,West,5.8,-,N/A,,Overcast,260,2014-02-21 22:15:00
5:35 PM,55.4,44.6,67,29.92,10.0,WSW,3.5,-,N/A,,Overcast,240,2014-02-21 22:35:00
5:55 PM,55.4,44.6,67,29.94,10.0,Calm,Calm,-,N/A,,Mostly Cloudy,0,2014-02-21 22:55:00
6:15 PM,53.6,44.6,72,29.96,10.0,Calm,Calm,-,N/A,,Scattered Clouds,0,2014-02-21 23:15:00
6:35 PM,51.8,44.6,76,29.97,10.0,Calm,Calm,-,N/A,,Clear,0,2014-02-21 23:35:00
6:55 PM,48.2,46.4,93,29.97,10.0,Calm,Calm,-,N/A,,Clear,0,2014-02-21 23:55:00
7:15 PM,48.2,44.6,87,29.98,10.0,Calm,Calm,-,N/A,,Clear,0,2014-02-22 00:15:00
7:35 PM,48.2,44.6,87,29.99,10.0,Calm,Calm,-,N/A,,Clear,0,2014-02-22 00:35:00
7:55 PM,44.6,42.8,93,30.00,10.0,Calm,Calm,-,N/A,,Clear,0,2014-02-22 00:55:00
8:15 PM,46.4,46.4,100,30.00,10.0,Calm,Calm,-,N/A,,Clear,0,2014-02-22 01:15:00
8:35 PM,46.4,46.4,100,30.01,10.0,South,3.5,-,N/A,,Clear,190,2014-02-22 01:35:00
8:55 PM,46.4,46.4,100,30.01,10.0,Calm,Calm,-,N/A,,Clear,0,2014-02-22 01:55:00
9:15 PM,44.6,44.6,100,30.02,10.0,Calm,Calm,-,N/A,,Clear,0,2014-02-22 02:15:00
9:35 PM,46.4,46.4,100,30.03,10.0,Calm,Calm,-,N/A,,Clear,0,2014-02-22 02:35:00
9:55 PM,44.6,44.6,100,30.03,10.0,Calm,Calm,-,N/A,,Clear,0,2014-02-22 02:55:00
10:15 PM,46.4,46.4,100,30.05,10.0,Calm,Calm,-,N/A,,Clear,0,2014-02-22 03:15:00
10:35 PM,46.4,44.6,93,30.05,10.0,Calm,Calm,-,N/A,,Clear,0,2014-02-22 03:35:00
10:55 PM,42.8,42.8,100,30.05,10.0,Calm,Calm,-,N/A,,Clear,0,2014-02-22 03:55:00
11:15 PM,46.4,42.8,87,30.06,10.0,Calm,Calm,-,N/A,,Clear,0,2014-02-22 04:15:00
11:35 PM,46.4,42.8,87,30.07,10.0,Calm,Calm,-,N/A,,Clear,0,2014-02-22 04:35:00
11:55 PM,46.4,39.2,76,30.07,10.0,Calm,Calm,-,N/A,,Clear,0,2014-02-22 04:55:00